{"data":{"norad_id":53452,"epoch":"2026-09-13T13:57:44.459712Z","epoch_age_seconds":741343,"freshness":"AGED","line1":"1 53452U 22098J   26256.58176458  .04156202  25920-5  78205-3 0  9993","line2":"2 53452  97.5516  37.5890 0011341 277.2523  82.7483 16.31937210228832","mean_motion":16.3193721,"eccentricity":0.0011341,"inclination_deg":97.5516,"raan_deg":37.589,"arg_perigee_deg":277.2523,"mean_anomaly_deg":82.7483,"bstar":0.00078205,"rev_number":22883,"period_min":88.238689036326,"perigee_km":179.89299175915,"apogee_km":194.78480419094,"semimajor_km":6565.475897975,"source":"CELESTRAK","updated_at":"2026-09-15T09:00:26.148250Z"}}